THORAD AGENA D DEB, 5146

Orbit data source: Space-Track

THORAD AGENA D DEB, 5146 is space debris in SSO originally from a launch on Wed, 08 Apr 1970 UTC launched from the Air Force Western Test Range (AFWTR). Debris objects in space refer to the collection of defunct objects orbiting the Earth. Examples of debris include non-operational satellites, rocket bodies, and fragments generated from explosions, collisions, or faulty payload assembly.

Loading next visibility...
Identifier
5146, 1970-025JQ
Orbit
SSO
Country
Flag of USUS
Related business
Manufacturer
Unknown
Mission
Spacecraft
Bus & Motor
Unknown
Mass
Unknown
Launch date (UTC)
1970-04-08 (56 years ago)
Launch vehicle
Unknown
Launch site
Air Force Western Test Range (AFWTR)
Object type
Payload
Rocket body
Debris
Shape & HBR
Unknown shape, 0.1 m
Radar Cross Section
Medium (>0.1 m² and <1 m²)

Expand to show TLE details & history
Last TLE update: 1 day ago

TLE from 1 day ago
0 THORAD AGENA D DEB
1 05146U 70025JQ  26256.11883652  .00000038  00000-0  10889-3 0  9995
2 05146 100.0200 123.2055 0043003 156.1236 355.9718 13.62775279801289
Epoch: 2026-09-13T02:51Z
TLE epoch observation values (Epoch: 2026-09-13T02:51:07.475Z)
Latitude
27.5179°
Longitude
-86.43979°
Altitude
997.12 km
Speed
7.371 km/s
True Right ascension
20h 33m 50s
True Declination
27° 22' 54"
Sunlit
Object was in full shadow at epoch
Visualization orbit readout
Latitude
Unknown
Longitude
Unknown
Altitude
Unknown
Speed
Unknown
Apparent Right ascension
Unknown
Apparent Declination
Unknown
Sunlit
N/A
Visualization observer readout
Local Sidereal Time
00:41:38
Azimuth
Unknown
Elevation
Unknown
Doppler factor
Unknown
Orbital elements
Apogee altitude
1,054.751 km
Perigee altitude
991.097 km
Semi-major axis
7,401.061 km
Eccentricity
0.0043
Inclination
100.02°
RAAN
123.2055°
Arg. of periapsis
156.1236°
True anomaly
355.937°
Mean anomaly
355.9718°
Eccentric anomaly
355.95442°
Mean motion
3.40881 °/min
Orbital period
105.61 mins
BSTAR
0.00010889
Loading maneuver chart data...
Computing Atmospheric mass density...

Documentation

Showing up to 5 results
|